Wind_Speed
15 8 6 7 7 6 13 9 8 7 5 3 1 7 7 6 6 2 3 11 11 18 16 16 14 18 20 21 21 22 25 29 31 30 30 32 32 32 32 32 31 29 27 26 25 22 21 21 23
14 11 7 3 9 14 11 9 12 9 1 5 6 10 11 11 3 1 9 9 15 16 15 16 17 16 20 21 22 22 24 28 32 31 32 33 33 33 33 33 32 30 29 28 25 23 22 22 24
15 12 6 5 13 18 14 10 9 4 0 2 4 4 3 2 3 3 5 14 15 14 14 14 17 17 20 20 21 22 23 26 30 32 33 34 34 34 34 33 33 32 29 29 25 23 23 25 26
12 8 5 11 19 10 18 10 6 7 4 2 3 8 4 3 1 5 10 15 15 13 13 15 17 17 18 20 20 21 21 24 27 31 33 33 32 34 34 33 33 32 31 27 24 23 26 28 28
11 5 12 15 22 20 12 11 5 9 5 7 9 9 9 6 7 8 11 17 16 13 12 13 16 17 17 22 21 21 21 24 26 29 31 32 33 33 32 33 31 29 28 26 24 26 28 28 29
8 6 12 18 21 15 19 15 11 13 13 13 10 8 9 3 9 12 14 18 15 15 12 13 18 17 18 19 22 22 22 22 25 28 26 31 30 31 34 31 29 27 24 23 25 27 30 30 30
16 11 20 22 19 11 16 16 14 17 16 16 1 5 5 2 5 8 15 17 17 15 14 13 17 17 17 17 20 23 21 19 19 20 20 22 19 25 28 26 23 21 20 26 27 28 30 29 29
10 11 23 19 14 19 18 12 13 13 15 4 3 4 4 7 5 8 14 17 17 15 13 13 15 17 16 17 17 19 21 19 17 18 18 19 26 22 21 17 19 18 23 25 27 29 29 29 28
11 11 17 20 14 15 9 14 15 10 13 13 9 7 6 9 3 10 14 17 17 15 15 13 14 15 18 15 17 19 20 19 19 18 19 21 27 22 20 25 23 20 18 22 27 30 29 27 25
14 15 23 19 13 14 13 15 15 9 12 12 13 10 4 7 6 12 16 18 19 16 14 13 16 14 16 18 13 16 16 20 18 18 20 20 25 24 24 27 25 24 23 21 24 29 28 26 20
12 22 17 11 14 17 16 17 17 15 19 14 17 13 11 10 10 12 20 22 19 16 15 14 14 13 15 18 14 15 16 18 20 20 22 25 23 21 22 26 26 25 26 26 21 25 25 21 20
15 14 17 17 15 17 17 18 21 20 18 17 20 19 16 16 14 14 19 23 20 20 18 16 15 14 15 14 14 14 15 16 19 21 22 24 24 22 20 28 22 27 28 28 26 26 24 21 19
17 19 18 17 19 22 22 24 25 24 19 21 20 18 18 18 17 18 21 22 22 22 20 18 15 15 15 15 14 16 15 14 19 21 24 25 24 22 22 21 24 29 30 32 29 25 22 20 18
3 9 14 13 16 19 20 22 22 17 19 20 20 18 19 19 18 17 18 21 24 24 21 19 16 14 13 13 15 16 13 15 18 23 25 24 26 24 25 27 25 28 33 31 26 24 22 20 18
10 14 15 17 18 18 16 22 24 22 21 21 20 17 20 19 19 15 18 19 23 24 22 21 18 15 15 13 13 15 18 19 17 19 23 25 27 28 29 29 28 30 34 31 25 24 22 20 18
10 12 15 6 5 9 10 16 13 13 14 16 16 16 17 18 16 18 16 17 22 24 24 21 18 18 16 13 12 14 17 19 20 21 24 25 26 26 25 28 28 32 35 33 24 24 23 21 20
10 10 11 11 11 13 12 12 8 5 9 12 14 14 14 14 14 15 13 16 20 24 25 23 20 19 17 14 14 14 13 18 21 22 24 25 28 27 33 31 29 34 35 34 25 24 23 21 20
7 10 11 10 4 14 19 19 15 15 14 15 14 13 13 14 15 12 9 15 19 24 25 22 21 20 17 15 14 13 12 17 18 20 23 26 30 31 35 31 34 34 35 31 24 25 23 22 21
14 13 17 16 16 19 21 22 20 18 18 17 17 17 16 17 15 14 10 15 20 24 26 24 23 22 21 17 15 14 12 15 16 18 17 19 31 18 36 34 36 36 39 37 28 25 25 23 21
16 15 16 16 12 12 19 22 18 17 19 22 20 18 18 16 16 14 11 18 23 26 27 26 25 24 22 19 16 12 15 16 15 16 16 15 18 25 35 36 36 38 36 34 29 28 26 24 25
14 14 12 13 14 19 21 23 17 17 25 23 21 21 20 19 17 16 13 18 22 27 29 27 27 25 23 19 16 13 14 10 11 15 13 17 18 21 29 37 38 37 36 35 30 28 29 26 27
10 3 6 9 9 9 6 7 12 10 12 18 20 19 19 19 18 17 13 16 23 25 25 26 26 26 24 22 18 17 15 10 11 12 14 12 12 23 28 39 37 37 33 32 31 30 29 26 26
9 3 7 10 12 14 13 8 3 7 7 13 16 19 19 18 18 17 14 16 21 25 27 27 26 25 24 22 18 17 13 13 12 12 13 13 13 20 27 36 35 36 33 29 30 29 29 27 26
3 8 12 12 9 8 12 11 4 3 7 5 7 4 5 8 9 12 11 15 21 25 26 27 27 25 24 22 20 19 16 16 15 13 12 14 17 19 21 27 28 32 31 28 30 30 31 28 25
10 8 5 7 5 6 1 6 12 11 11 12 9 11 9 8 7 8 12 14 21 26 26 27 29 25 25 23 21 21 17 16 13 15 13 15 16 20 23 23 25 30 30 26 26 29 30 29 27
10 11 6 6 4 6 3 7 2 5 4 6 7 10 11 9 7 6 9 13 18 22 23 25 27 25 24 22 20 20 18 15 13 13 13 12 14 15 19 25 30 30 33 32 29 27 29 28 28
6 7 4 6 13 7 8 9 6 3 6 9 11 12 14 16 12 4 8 10 17 21 22 23 25 24 24 22 20 19 18 16 14 13 12 11 12 13 18 24 30 32 33 33 31 30 31 32 33
7 2 3 5 4 5 4 7 1 11 12 12 12 13 14 15 15 5 6 9 15 19 20 21 23 22 22 20 19 18 17 15 13 12 13 12 11 12 15 19 25 28 31 30 33 34 32 31 34
7 7 3 2 5 4 5 2 6 7 9 11 12 12 13 13 13 8 6 7 15 16 16 19 21 22 21 19 19 16 15 15 13 12 11 10 9 11 14 15 18 22 26 29 29 31 31 31 24
10 8 8 4 4 2 3 2 7 8 10 10 10 11 11 11 12 14 10 11 14 14 15 16 17 19 19 17 15 15 14 13 13 13 12 11 11 11 13 14 16 18 25 28 28 27 26 30 32
Wind_Direction
201 204 204 219 241 235 245 237 268 227 214 189 298 233 232 308 197 347 25 155 151 159 165 175 182 176 183 190 194 200 199 201 204 200 194 188 185 181 176 171 166 165 165 160 158 154 150 151 152
186 177 198 235 246 238 235 233 235 237 231 303 257 248 247 254 226 59 141 159 155 163 169 176 194 181 184 188 191 198 200 202 205 203 197 192 187 183 179 173 169 167 166 160 158 155 154 157 155
167 188 224 228 238 246 253 206 267 159 45 263 227 241 260 245 199 204 128 157 159 163 170 180 196 181 186 191 194 198 200 204 204 203 199 195 190 186 182 173 170 170 167 159 157 156 159 159 156
165 187 229 241 245 244 255 255 248 184 193 211 311 269 213 255 271 186 161 162 162 164 167 193 192 182 185 196 200 201 195 197 199 201 200 196 192 189 182 174 171 175 172 163 162 159 163 161 159
195 215 235 234 249 253 251 267 214 229 254 281 316 276 264 202 202 185 175 175 170 168 174 186 194 188 192 196 203 204 201 197 200 201 199 197 194 188 181 175 175 176 175 168 166 164 166 165 161
195 248 234 240 241 238 247 248 254 250 258 267 269 293 270 23 208 188 184 183 178 170 175 180 192 193 194 202 204 208 208 205 199 209 204 199 196 190 184 177 175 177 176 173 169 169 169 167 164
241 217 244 252 256 247 246 260 241 251 264 263 97 271 280 319 239 201 184 181 179 172 171 179 184 192 199 208 210 213 211 213 218 220 214 208 209 205 191 179 181 180 176 170 168 172 171 170 169
234 251 255 249 250 244 239 230 249 249 252 94 264 232 290 358 295 207 190 185 187 177 176 179 183 189 196 207 213 217 216 212 213 217 212 207 205 205 186 172 180 182 177 174 171 173 173 173 169
233 243 248 247 229 246 238 246 246 269 254 227 231 264 333 328 291 203 200 194 196 188 183 191 184 192 195 205 210 212 216 211 213 214 209 200 196 183 173 192 189 171 191 188 176 174 174 172 169
220 233 248 261 252 253 250 248 262 225 223 237 245 249 250 310 271 227 211 207 205 196 188 196 191 191 197 201 204 208 213 211 205 195 194 186 191 183 178 175 180 175 184 189 192 181 175 165 162
226 247 264 246 259 255 255 259 257 245 255 246 262 273 268 275 263 247 233 225 212 203 192 198 195 197 201 202 201 204 209 205 202 197 191 189 182 184 176 177 181 179 182 177 183 182 166 168 165
251 244 261 261 253 254 251 257 263 261 258 267 267 274 276 268 258 244 242 229 214 204 196 193 193 191 200 194 197 197 201 198 197 196 192 189 181 182 187 189 187 184 185 179 178 177 170 172 171
242 257 262 260 255 260 264 259 261 259 258 256 261 262 265 264 260 253 242 237 216 210 200 189 186 186 195 196 197 199 198 191 191 191 192 189 181 185 193 188 189 192 189 184 175 173 169 171 167
296 261 262 261 258 253 255 258 251 255 253 252 255 254 257 258 256 256 243 231 214 208 198 188 186 189 195 195 204 203 193 194 199 194 192 194 191 187 188 180 183 185 189 182 174 168 169 171 170
265 271 266 256 253 248 261 259 248 251 257 256 258 249 249 251 254 248 251 229 212 203 195 188 181 187 197 200 205 206 209 199 193 191 192 192 193 193 184 178 182 191 190 180 175 171 172 173 171
266 263 267 248 241 235 234 266 254 239 250 255 251 249 246 249 253 254 242 228 208 196 193 187 179 186 197 194 198 205 207 202 210 203 199 198 196 198 188 186 186 191 185 179 178 170 173 174 173
233 268 258 277 252 273 235 277 279 269 271 267 257 255 250 249 248 245 239 218 204 194 188 184 178 187 190 185 195 199 205 211 215 219 219 215 215 205 194 187 183 190 185 181 176 178 175 174 174
252 241 262 265 257 297 281 273 266 267 261 265 271 267 257 254 249 257 234 205 194 192 190 182 173 179 183 184 189 196 203 218 220 223 219 217 209 203 194 184 181 185 181 181 184 178 176 176 178
276 272 276 276 277 282 275 268 264 262 262 252 254 257 255 253 260 258 231 195 193 191 187 179 173 177 175 181 178 188 189 200 212 219 224 225 219 187 187 186 180 182 180 186 182 180 176 182 177
250 263 270 281 278 274 272 274 275 261 253 251 249 251 252 249 249 240 209 192 193 191 189 179 177 177 180 183 182 183 184 199 204 213 220 220 217 217 192 186 180 180 176 179 183 184 179 181 181
239 256 277 286 298 271 271 277 261 250 242 248 245 246 251 252 248 233 201 198 194 193 189 182 178 178 180 183 181 173 171 182 194 202 221 229 218 233 208 184 183 180 180 177 184 183 184 177 187
247 231 267 279 291 286 351 289 295 282 258 228 235 237 240 235 232 238 211 199 199 195 188 183 178 179 180 184 180 180 183 183 201 197 209 216 223 214 198 189 187 187 179 181 185 189 187 185 189
260 275 278 279 272 292 271 261 236 244 256 238 233 232 234 231 226 234 224 206 197 187 184 180 177 180 178 181 180 180 183 196 192 188 199 205 197 195 171 181 182 181 181 185 191 191 193 193 196
275 273 267 256 255 259 263 237 264 306 17 359 356 319 283 258 258 251 223 195 186 179 177 176 177 180 178 176 181 181 184 195 182 188 187 188 199 197 193 184 188 188 187 189 190 189 191 195 200
231 264 263 218 195 252 175 255 258 305 349 317 317 317 308 302 287 235 193 182 177 174 168 173 178 176 174 176 180 186 188 193 190 188 188 192 191 196 200 200 197 195 189 190 191 192 195 200 204
213 222 265 283 254 301 228 239 103 57 333 342 328 333 329 327 310 233 178 180 170 172 165 173 174 172 170 175 178 180 182 186 190 187 192 194 201 202 206 213 205 203 199 201 199 196 198 201 207
157 214 290 278 253 267 245 250 181 73 356 353 356 357 350 342 341 293 176 170 165 169 166 174 172 168 169 172 178 177 178 184 186 189 196 206 207 207 212 216 200 209 205 202 203 208 212 215 213
257 94 230 219 249 251 249 269 115 359 345 352 355 359 356 350 345 36 144 166 164 155 171 171 167 168 167 171 176 181 185 185 187 189 196 206 207 200 199 205 209 205 209 208 210 211 214 220 222
187 216 194 263 276 297 302 72 353 8 1 353 360 1 4 357 360 9 96 129 120 147 159 160 165 160 160 168 178 176 178 180 181 184 192 203 203 203 206 198 199 204 209 207 204 213 216 219 221
239 242 205 250 177 257 317 327 70 46 41 18 9 1 4 9 10 34 45 107 120 138 145 155 163 154 152 163 166 166 167 171 178 187 194 198 201 203 201 199 197 202 211 207 205 208 215 220 220
Height
784 786 787 784 785 771 762 754 747 752 753 744 745 746 743 735 741 752 739 741 743 747 749 750 753 756 760 764 767 771 771 772 776 778 781 782 785 787 790 793 795 797 800 803 808 812 815 817 818
784 786 786 772 779 765 756 740 754 743 742 745 746 745 746 745 734 736 740 743 744 747 750 752 752 755 758 762 765 768 771 771 773 777 780 782 785 788 791 793 795 799 800 803 807 812 814 817 819
782 783 775 770 764 762 753 738 743 742 745 746 743 739 740 738 736 736 740 743 746 748 750 753 754 757 760 762 764 767 769 771 772 776 780 782 784 787 790 793 795 799 801 803 808 811 815 818 820
778 780 774 771 758 752 747 735 741 746 743 742 741 744 735 736 736 738 741 744 747 749 750 751 753 756 758 762 765 767 769 771 774 775 779 782 785 787 790 793 796 798 801 803 808 811 815 818 820
774 764 767 762 756 746 746 743 745 746 746 744 741 743 740 734 737 739 741 743 745 748 750 749 752 755 759 760 764 767 768 771 774 776 779 782 785 787 791 793 797 800 802 805 809 812 816 820 821
768 760 761 753 749 748 748 735 743 745 740 740 743 742 736 733 736 737 741 743 745 746 749 750 750 754 757 760 763 766 768 771 774 776 780 782 785 789 788 793 797 800 804 808 809 813 817 820 824
763 759 750 742 743 747 749 734 745 742 738 738 739 746 732 733 737 739 740 742 744 745 747 750 750 754 757 761 762 766 767 771 775 779 782 780 783 787 792 795 798 803 807 808 811 814 818 821 826
758 753 751 740 747 749 739 738 736 739 735 733 736 738 737 732 738 740 740 741 744 743 746 748 751 753 755 759 762 765 768 770 774 777 781 785 786 787 778 791 802 804 807 809 811 816 820 823 828
758 760 748 740 747 741 735 739 729 732 734 732 731 731 734 738 737 739 740 740 743 743 744 747 749 753 753 758 761 763 767 769 772 775 778 781 784 787 793 792 803 803 810 812 812 816 820 826 830
758 749 742 731 737 739 732 734 732 737 736 734 730 728 735 736 736 736 737 737 740 742 744 748 748 751 752 756 758 762 765 768 771 774 775 778 782 786 793 795 801 801 808 812 813 816 820 827 832
751 746 733 739 743 738 736 734 730 733 736 730 729 726 729 729 733 733 732 732 736 740 742 746 749 750 752 754 756 759 762 764 768 771 773 777 781 787 790 792 796 800 805 806 814 819 823 827 831
757 746 744 737 738 741 738 731 729 727 728 726 722 723 725 725 724 726 729 728 731 735 738 743 745 747 750 751 754 757 760 761 765 768 772 774 779 783 786 789 793 797 802 805 810 818 822 827 831
751 746 739 739 740 737 734 732 728 722 721 718 717 719 720 719 717 718 721 723 727 731 736 738 742 744 748 748 752 754 757 758 761 766 769 773 777 781 784 788 792 794 799 803 808 816 822 827 830
740 743 740 737 735 732 734 727 725 718 713 713 713 713 712 710 709 710 712 715 718 725 731 735 739 743 747 748 751 752 754 757 760 763 767 770 774 778 782 785 790 793 797 802 807 814 821 826 829
746 746 737 731 727 727 723 722 718 709 705 706 704 705 702 701 701 703 705 707 714 720 726 731 734 741 746 747 749 750 752 755 759 762 766 769 772 775 779 784 788 792 796 802 807 814 819 824 829
750 740 742 718 724 721 723 719 701 696 698 698 697 695 694 693 694 695 698 702 709 715 721 727 730 737 743 744 747 748 750 753 757 760 763 766 770 774 779 783 787 790 794 801 806 812 817 822 827
744 738 733 728 718 719 720 711 700 695 697 696 691 688 687 688 688 690 694 699 704 711 717 722 726 735 740 742 745 746 749 752 754 757 760 764 768 772 775 779 784 787 793 799 804 811 815 820 825
731 733 728 733 724 724 720 709 699 695 693 693 687 685 684 684 683 684 689 695 700 707 714 718 722 730 737 741 743 745 748 750 753 755 758 762 764 767 769 775 779 786 791 798 804 808 814 818 823
738 744 740 730 723 726 720 710 697 691 689 689 686 683 680 680 678 680 684 691 698 704 710 713 720 727 733 738 740 743 745 749 751 754 756 758 760 756 763 770 775 781 788 795 802 806 811 817 822
740 736 734 725 719 721 709 697 687 684 682 680 679 678 676 673 672 673 680 687 693 699 704 708 716 723 729 734 737 739 742 747 749 751 754 756 759 762 758 762 771 777 785 793 799 804 809 814 819
733 732 727 726 720 712 703 686 673 669 672 673 672 670 669 668 667 666 673 681 688 692 697 704 711 719 726 730 733 737 740 745 748 749 751 753 755 757 759 759 767 774 781 788 796 800 805 810 816
731 725 728 727 723 709 699 696 671 668 666 663 664 664 661 659 660 661 662 673 680 686 694 701 708 716 721 726 730 733 737 742 745 746 748 750 751 752 754 758 764 771 778 786 792 798 802 807 812
729 727 726 723 720 711 700 699 664 667 667 661 655 654 651 650 651 652 656 664 674 681 690 697 705 714 717 722 727 731 736 740 742 745 747 750 751 752 753 756 762 767 775 784 789 795 800 805 809
724 728 720 713 713 716 688 691 665 662 664 655 655 652 653 652 652 651 654 662 669 677 686 694 703 710 714 719 724 728 733 738 740 743 746 748 750 753 755 758 763 768 775 781 787 791 796 801 806
727 728 717 710 720 700 683 688 669 658 667 668 667 663 659 655 652 650 655 659 665 674 684 692 699 707 711 716 721 726 730 736 738 742 745 747 750 752 756 758 763 767 772 778 783 787 792 797 802
722 723 714 711 696 683 676 685 662 669 669 668 667 667 662 655 651 649 653 659 664 674 686 691 697 705 709 715 718 724 729 733 737 740 742 746 749 752 754 758 760 766 770 775 780 785 789 794 798
721 723 709 717 706 709 679 661 664 664 669 671 673 675 675 665 656 649 653 659 663 672 685 691 696 702 707 713 718 722 727 731 735 738 740 743 746 749 752 755 757 762 766 772 776 781 785 789 794
715 712 727 720 715 693 661 662 669 681 682 677 681 685 686 681 667 656 657 662 665 675 686 691 696 701 706 712 717 721 725 729 734 737 739 741 743 746 749 752 755 757 763 767 772 776 781 786 789
718 716 721 731 710 693 681 691 704 702 697 696 693 696 695 691 684 667 665 668 671 681 688 693 696 700 705 712 716 720 724 728 732 736 738 740 742 744 746 750 754 757 760 764 767 771 776 779 784
698 702 708 709 707 712 713 691 703 706 706 705 705 707 704 700 694 687 677 678 680 686 691 696 698 700 704 712 717 720 724 727 731 734 737 740 742 744 746 748 751 755 758 762 764 769 772 775 779